Regional Weather Roundup
Issued by NWS

Home | Current Version | Previous Version | Graphics & Text | Print | Product List | Glossary On
Versions: 1 2 3 4 5 6 7 8 9 10 11 12 13 14 15 16 17 18 19 20 21 22 23 24 25 26 27 28 29 30 31 32 33 34 35 36 37 38 39 40 41 42 43 44 45 46 47 48 49 50
000
ASUS45 KBOU 290707
RWRCO

WEATHER ROUNDUP FOR COLORADO
NATIONAL WEATHER SERVICE DENVER/BOULDER CO
100 AM MDT FRI AUG 29 2014

NOTE: "FAIR" INDICATES FEW OR NO CLOUDS BELOW 12000 FEET WITH NO
SIGNIFICANT WEATHER AND/OR OBSTRUCTIONS TO VISIBILITY.

COZ001>005-013-030-031-290800-
...NORTHWEST COLORADO...

CITY           SKY/WX    TMP DP  RH WIND       PRES   REMARKS
CRAIG          CLEAR     50  47  89 CALM      30.23S
HAYDEN         CLEAR     52  46  82 E10       30.25S
MEEKER         CLEAR     50  46  86 E7        30.26F
MOUNT WERNER   NOT AVBL
STEAMBOAT SPGS CLEAR     48  46  92 CALM      30.28S
WALDEN         CLEAR     41  37  87 E10       30.32S
$$

COZ006>008-011-290800-
...WEST CENTRAL VALLEYS...

CITY           SKY/WX    TMP DP  RH WIND       PRES   REMARKS
GRAND JUNCTION PTCLDY    61  53  75 E12       30.15S
MONTROSE       CLEAR     57  47  69 SE10      30.25S
EAGLE          CLEAR     52  46  82 SE3       30.30S
RIFLE          CLEAR     56  49  77 SE6       30.22R
DELTA          CLEAR     58  51  77 NE3       30.21S
NUCLA          CLEAR     55  45  67 E5        30.27S
$$

COZ017>023-064>068-290800-
...SOUTHWEST COLORADO...

CITY           SKY/WX    TMP DP  RH WIND       PRES   REMARKS
DURANGO        CLEAR     50  38  63 CALM      30.23S
CORTEZ         CLEAR     52  46  80 NE3       30.22F
PAGOSA SPRINGS CLEAR     51  37  58 CALM      30.31R
TELLURIDE      NOT AVBL
WOLF CREEK PAS CLEAR     37  32  81 NE12      30.54F
$$

COZ009-010-012-014-032>034-037-058>063-290800-
...CENTRAL COLORADO...

CITY           SKY/WX    TMP DP  RH WIND       PRES   REMARKS
ASPEN          CLEAR     44  41  89 SW6       30.34S
BUENA VISTA    PTCLDY    46  38  73 SE7       30.33S
COPPER MTN     PTCLDY    41  37  87 W17G23    30.55F
BERTHOUD PASS  FOG       34  32  93 NW26G35   30.54F VSB<1/4 WCI  21
COTTONWOOD PAS PTCLDY    52  36  54 W12       30.43S
GUNNISON       CLEAR     46  37  71 CALM      30.37R
KREMMLING      CLEAR     43  39  87 CALM      30.33S
LEADVILLE      PTCLDY    38  35  89 E6        30.43F
MONARCH PASS   PTCLDY    37  32  81 NW9       30.65F
SALIDA         PTCLDY    48  40  75 W5        30.38F
SUNLIGHT       CLEAR     46  43  87 CALM      30.52S
WILKERSON PASS NOT AVBL
$$

COZ069>075-290800-
...SAN LUIS VALLEY/SANGRE DE CRISTO MOUNTAINS...

CITY           SKY/WX    TMP DP  RH WIND       PRES   REMARKS
ALAMOSA        CLEAR     45  41  86 W3        30.30S
LA VETA PASS   NOT AVBL
SAGUACHE       NOT AVBL
$$

COZ035-036-038>040-290800-
...NORTHERN COLORADO FRONT RANGE...

CITY           SKY/WX    TMP DP  RH WIND       PRES   REMARKS
DENVER INTL AP CLEAR     54  46  74 S7        30.11F
DMNS CITY PARK   N/A     55  48  77 S5        30.11F
AURORA         CLEAR     53  46  75 S9        30.13F
FRONT RANGE AP PTCLDY    54  48  82 S9        30.12F
ERIE MUNI ARPT CLEAR     51  49  92 CALM      30.10F
BOULDER MUN AP CLEAR     52  50  93 CALM      30.10F
CENTENNIAL     PTCLDY    51  46  83 S3        30.14F
BROOMFIELD     CLEAR     59  45  58 W6        30.13F
FORT COLLINS   CLEAR     54  48  82 NW3       30.11S
LONGMONT       CLEAR     52  48  86 W3        30.11F
$$

COZ041-046-047-076>085-087-088-290800-
...PIKES PEAK/PALMER DIVIDE AND SOUTHERN FOOTHILLS...

CITY           SKY/WX    TMP DP  RH WIND       PRES   REMARKS
COLO. SPRINGS  PTCLDY    52  44  74 N8        30.18F
A. F. ACADEMY  CLEAR     45  43  93 N12       30.20F
ELLICOTT       CLEAR     48  44  86 E3        30.17S
FALCON         CLEAR     48  42  82 NW7       30.22S
FORT CARSON    CLEAR     51  46  83 NW7       30.15F
LIMON          CLEAR     52  48  86 W7        30.12F
MONUMENT HILL  CLEAR     46  41  81 SW9       30.21S
TRINIDAD       CLEAR     55  48  77 SW15      30.18F
$$

COZ042>045-048>051-090-091-290800-
...NORTHEAST COLORADO...

CITY           SKY/WX    TMP DP  RH WIND       PRES   REMARKS
GREELEY ARPT   CLEAR     52  43  71 CALM      30.09S
AKRON          CLEAR     55  51  86 W13       30.05F
BURLINGTON     PTCLDY    56  52  86 W5        30.02F
WRAY             N/A     59  56  90 NW7       29.99S
STERLING       CLEAR     59  55  88 CALM      30.01F
HOLYOKE        CLEAR     61  54  77 W8        29.99F
FORT MORGAN    CLEAR     55  50  85 W7        30.07S
$$

COZ086-089-092>099-290800-
...SOUTHEAST COLORADO...

CITY           SKY/WX    TMP DP  RH WIND       PRES   REMARKS
PUEBLO         CLEAR     55  51  86 W7        30.11F
LA JUNTA       PTCLDY    57  53  86 W10       30.08F
LAMAR          CLEAR     58  53  84 SW6       30.03S
SPRINGFIELD      N/A     58  51  78 W8        30.07F
$$



USA.gov is the U.S. government's official web portal to all federal, state and local government web resources and services.